Time,TemperatureF,DewpointF,PressureIn,WindDirection,WindDirectionDegrees,WindSpeedMPH,WindSpeedGustMPH,Humidity,HourlyPrecipIn,Conditions,Clouds,dailyrainin,SoftwareType,DateUTC
2013-09-01 00:12:00,65.0,51.0,-100.00,East,83,2.0,4.0,61,-99.99,,,-99.99,,2013-09-01 06:12:00,
2013-09-01 00:22:00,64.0,50.0,-100.00,ENE,64,2.0,2.0,62,-99.99,,,-99.99,,2013-09-01 06:22:00,
2013-09-01 00:42:00,62.0,51.0,-100.00,ENE,61,2.0,3.0,65,-99.99,,,-99.99,,2013-09-01 06:42:00,
2013-09-01 00:52:00,63.0,50.0,-100.00,East,90,4.0,4.0,63,-99.99,,,-99.99,,2013-09-01 06:52:00,
2013-09-01 01:12:00,61.0,49.0,-100.00,East,86,0.0,3.0,64,-99.99,,,-99.99,,2013-09-01 07:12:00,
2013-09-01 01:22:00,61.0,49.0,-100.00,North,356,2.0,3.0,65,-99.99,,,-99.99,,2013-09-01 07:22:00,
2013-09-01 01:42:00,59.0,49.0,-100.00,ENE,73,3.0,3.0,69,-99.99,,,-99.99,,2013-09-01 07:42:00,
2013-09-01 01:52:00,59.0,49.0,-100.00,East,89,2.0,4.0,70,-99.99,,,-99.99,,2013-09-01 07:52:00,
2013-09-01 02:11:00,58.0,49.0,-100.00,North,0,0.0,2.0,72,-99.99,,,-99.99,,2013-09-01 08:11:00,
2013-09-01 02:22:00,58.0,49.0,-100.00,North,0,0.0,0.0,72,-99.99,,,-99.99,,2013-09-01 08:22:00,
2013-09-01 02:43:00,56.0,48.0,-100.00,North,0,0.0,1.0,73,-99.99,,,-99.99,,2013-09-01 08:43:00,
2013-09-01 02:52:00,56.0,47.0,-100.00,NE,56,2.0,4.0,73,-99.99,,,-99.99,,2013-09-01 08:52:00,
2013-09-01 03:11:00,55.0,48.0,-100.00,East,80,1.0,2.0,77,-99.99,,,-99.99,,2013-09-01 09:11:00,
2013-09-01 03:21:00,55.0,47.0,-100.00,East,80,2.0,2.0,75,-99.99,,,-99.99,,2013-09-01 09:21:00,
2013-09-01 03:43:00,54.0,47.0,-100.00,NE,46,3.0,3.0,78,-99.99,,,-99.99,,2013-09-01 09:43:00,
2013-09-01 03:53:00,54.0,48.0,-100.00,NE,49,1.0,3.0,78,-99.99,,,-99.99,,2013-09-01 09:53:00,
2013-09-01 04:12:00,55.0,48.0,-100.00,ESE,110,3.0,4.0,77,-99.99,,,-99.99,,2013-09-01 10:12:00,
2013-09-01 04:23:00,54.0,48.0,-100.00,ESE,118,3.0,3.0,78,-99.99,,,-99.99,,2013-09-01 10:23:00,
2013-09-01 04:42:00,54.0,48.0,-100.00,SSW,198,1.0,3.0,79,-99.99,,,-99.99,,2013-09-01 10:42:00,
2013-09-01 04:53:00,54.0,47.0,-100.00,North,0,0.0,1.0,78,-99.99,,,-99.99,,2013-09-01 10:53:00,
2013-09-01 05:12:00,53.0,47.0,-100.00,NE,48,0.0,2.0,80,-99.99,,,-99.99,,2013-09-01 11:12:00,
2013-09-01 05:22:00,53.0,47.0,-100.00,NNE,26,1.0,3.0,79,-99.99,,,-99.99,,2013-09-01 11:22:00,
2013-09-01 05:42:00,54.0,48.0,-100.00,North,0,0.0,3.0,80,-99.99,,,-99.99,,2013-09-01 11:42:00,
2013-09-01 05:52:00,57.0,49.0,-100.00,ESE,119,2.0,4.0,74,-99.99,,,-99.99,,2013-09-01 11:52:00,
2013-09-01 06:12:00,54.0,47.0,-100.00,East,83,4.0,4.0,78,-99.99,,,-99.99,,2013-09-01 12:12:00,
2013-09-01 06:22:00,54.0,47.0,-100.00,ENE,64,1.0,5.0,79,-99.99,,,-99.99,,2013-09-01 12:22:00,
2013-09-01 06:42:00,54.0,48.0,-100.00,NE,53,2.0,3.0,80,-99.99,,,-99.99,,2013-09-01 12:42:00,
2013-09-01 06:52:00,54.0,48.0,-100.00,NE,35,0.0,1.0,80,-99.99,,,-99.99,,2013-09-01 12:52:00,
2013-09-01 07:11:00,55.0,48.0,-100.00,North,0,0.0,1.0,78,-99.99,,,-99.99,,2013-09-01 13:11:00,
2013-09-01 07:21:00,55.0,48.0,-100.00,NNE,31,1.0,1.0,77,-99.99,,,-99.99,,2013-09-01 13:21:00,
2013-09-01 07:42:00,54.0,47.0,-100.00,East,81,3.0,4.0,77,-99.99,,,-99.99,,2013-09-01 13:42:00,
2013-09-01 07:52:00,54.0,48.0,-100.00,North,0,0.0,3.0,79,-99.99,,,-99.99,,2013-09-01 13:52:00,
2013-09-01 08:11:00,56.0,49.0,-100.00,North,0,0.0,2.0,76,-99.99,,,-99.99,,2013-09-01 14:11:00,
2013-09-01 08:21:00,55.0,48.0,-100.00,North,2,1.0,2.0,77,-99.99,,,-99.99,,2013-09-01 14:21:00,
2013-09-01 08:32:00,55.0,48.0,-100.00,North,2,1.0,2.0,77,-99.99,,,-99.99,,2013-09-01 14:32:00,
2013-09-01 08:52:00,57.0,49.0,-100.00,NNE,14,0.0,1.0,74,-99.99,,,-99.99,,2013-09-01 14:52:00,
2013-09-01 09:02:00,57.0,49.0,-100.00,NNE,14,0.0,1.0,74,-99.99,,,-99.99,,2013-09-01 15:02:00,
2013-09-01 09:22:00,58.0,50.0,-100.00,ENE,68,2.0,2.0,74,-99.99,,,-99.99,,2013-09-01 15:22:00,
2013-09-01 09:55:00,60.0,49.0,-100.00,ESE,114,3.0,4.0,67,-99.99,,,-99.99,,2013-09-01 15:55:00,
2013-09-01 10:24:00,62.0,50.0,-100.00,ESE,119,4.0,5.0,65,-99.99,,,-99.99,,2013-09-01 16:24:00,
2013-09-01 10:43:00,63.0,50.0,-100.00,ESE,121,4.0,5.0,63,-99.99,,,-99.99,,2013-09-01 16:43:00,
2013-09-01 10:53:00,64.0,50.0,-100.00,ESE,120,4.0,4.0,61,-99.99,,,-99.99,,2013-09-01 16:53:00,
2013-09-01 11:12:00,65.0,50.0,-100.00,ESE,121,3.0,5.0,58,-99.99,,,-99.99,,2013-09-01 17:12:00,
2013-09-01 11:23:00,65.0,49.0,-100.00,ESE,102,3.0,4.0,56,-99.99,,,-99.99,,2013-09-01 17:23:00,
2013-09-01 11:42:00,66.0,49.0,-100.00,ESE,120,1.0,3.0,52,-99.99,,,-99.99,,2013-09-01 17:42:00,
2013-09-01 11:52:00,67.0,48.0,-100.00,SE,140,1.0,4.0,50,-99.99,,,-99.99,,2013-09-01 17:52:00,
2013-09-01 12:12:00,67.0,48.0,-100.00,ENE,73,0.0,3.0,50,-99.99,,,-99.99,,2013-09-01 18:12:00,
2013-09-01 12:22:00,68.0,48.0,-100.00,SE,143,1.0,2.0,47,-99.99,,,-99.99,,2013-09-01 18:22:00,
2013-09-01 12:52:00,69.0,48.0,-100.00,SSE,164,1.0,4.0,48,-99.99,,,-99.99,,2013-09-01 18:52:00,
2013-09-01 13:12:00,69.0,49.0,-100.00,NW,313,2.0,4.0,48,-99.99,,,-99.99,,2013-09-01 19:12:00,
2013-09-01 13:22:00,70.0,49.0,-100.00,North,0,0.0,3.0,46,-99.99,,,-99.99,,2013-09-01 19:22:00,
2013-09-01 13:42:00,70.0,50.0,-100.00,East,86,4.0,8.0,49,-99.99,,,-99.99,,2013-09-01 19:42:00,
2013-09-01 13:52:00,69.0,50.0,-100.00,ESE,102,5.0,8.0,50,-99.99,,,-99.99,,2013-09-01 19:52:00,
2013-09-01 14:12:00,71.0,50.0,-100.00,SE,144,0.0,5.0,46,-99.99,,,-99.99,,2013-09-01 20:12:00,
2013-09-01 14:21:00,72.0,50.0,-100.00,SE,126,0.0,5.0,45,-99.99,,,-99.99,,2013-09-01 20:21:00,
2013-09-01 14:42:00,74.0,50.0,-100.00,North,0,0.0,3.0,42,-99.99,,,-99.99,,2013-09-01 20:42:00,
2013-09-01 14:52:00,76.0,50.0,-100.00,North,0,0.0,0.0,41,-99.99,,,-99.99,,2013-09-01 20:52:00,
2013-09-01 15:11:00,77.0,48.0,-100.00,ESE,111,1.0,7.0,36,-99.99,,,-99.99,,2013-09-01 21:11:00,
2013-09-01 15:21:00,76.0,48.0,-100.00,ESE,117,0.0,12.0,37,-99.99,,,-99.99,,2013-09-01 21:21:00,
2013-09-01 15:43:00,77.0,46.0,-100.00,East,86,5.0,8.0,32,-99.99,,,-99.99,,2013-09-01 21:43:00,
2013-09-01 15:54:00,77.0,45.0,-100.00,ENE,71,7.0,9.0,32,-99.99,,,-99.99,,2013-09-01 21:54:00,
2013-09-01 16:14:00,76.0,45.0,-100.00,East,90,11.0,14.0,33,-99.99,,,-99.99,,2013-09-01 22:14:00,
2013-09-01 16:24:00,76.0,46.0,-100.00,East,100,10.0,14.0,34,-99.99,,,-99.99,,2013-09-01 22:24:00,
2013-09-01 16:42:00,76.0,47.0,-100.00,ESE,103,11.0,15.0,37,-99.99,,,-99.99,,2013-09-01 22:42:00,
2013-09-01 16:53:00,75.0,47.0,-100.00,ESE,114,12.0,18.0,36,-99.99,,,-99.99,,2013-09-01 22:53:00,
2013-09-01 17:12:00,76.0,47.0,-100.00,East,99,9.0,12.0,36,-99.99,,,-99.99,,2013-09-01 23:12:00,
2013-09-01 17:42:00,76.0,46.0,-100.00,ESE,110,8.0,12.0,35,-99.99,,,-99.99,,2013-09-01 23:42:00,
2013-09-01 17:53:00,77.0,47.0,-100.00,East,99,7.0,12.0,34,-99.99,,,-99.99,,2013-09-01 23:53:00,
2013-09-01 18:11:00,76.0,48.0,-100.00,ESE,113,7.0,9.0,37,-99.99,,,-99.99,,2013-09-02 00:11:00,
2013-09-01 18:22:00,76.0,50.0,-100.00,ESE,123,6.0,11.0,39,-99.99,,,-99.99,,2013-09-02 00:22:00,
2013-09-01 18:42:00,75.0,48.0,-100.00,SE,127,5.0,8.0,38,-99.99,,,-99.99,,2013-09-02 00:42:00,
2013-09-01 18:52:00,76.0,48.0,-100.00,SE,125,4.0,7.0,38,-99.99,,,-99.99,,2013-09-02 00:52:00,
2013-09-01 19:12:00,75.0,49.0,-100.00,ESE,111,4.0,6.0,40,-99.99,,,-99.99,,2013-09-02 01:12:00,
2013-09-01 19:21:00,75.0,49.0,-100.00,East,90,5.0,6.0,40,-99.99,,,-99.99,,2013-09-02 01:21:00,
2013-09-01 19:42:00,73.0,50.0,-100.00,ESE,118,15.0,22.0,43,-99.99,,,-99.99,,2013-09-02 01:42:00,
2013-09-01 19:52:00,72.0,50.0,-100.00,ESE,123,11.0,17.0,45,-99.99,,,-99.99,,2013-09-02 01:52:00,
2013-09-01 20:12:00,71.0,52.0,-100.00,ESE,105,7.0,11.0,51,-99.99,,,-99.99,,2013-09-02 02:12:00,
2013-09-01 20:22:00,70.0,50.0,-100.00,SE,126,10.0,16.0,48,-99.99,,,-99.99,,2013-09-02 02:22:00,
2013-09-01 20:42:00,70.0,52.0,-100.00,East,93,9.0,15.0,52,-99.99,,,-99.99,,2013-09-02 02:42:00,
2013-09-01 20:52:00,67.0,54.0,-100.00,ENE,70,8.0,11.0,63,-99.99,,,-99.99,,2013-09-02 02:52:00,
2013-09-01 21:11:00,64.0,55.0,-100.00,NE,39,5.0,10.0,72,-99.99,,,-99.99,,2013-09-02 03:11:00,
2013-09-01 21:22:00,64.0,56.0,-100.00,East,92,1.0,5.0,75,-99.99,,,-99.99,,2013-09-02 03:22:00,
2013-09-01 21:44:00,64.0,55.0,-100.00,NW,308,3.0,5.0,74,-99.99,,,-99.99,,2013-09-02 03:44:00,
2013-09-01 21:56:00,63.0,56.0,-100.00,NW,311,1.0,5.0,76,-99.99,,,-99.99,,2013-09-02 03:56:00,
2013-09-01 22:24:00,63.0,55.0,-100.00,ENE,64,2.0,5.0,77,-99.99,,,-99.99,,2013-09-02 04:24:00,
2013-09-01 22:44:00,62.0,55.0,-100.00,WNW,284,1.0,4.0,78,-99.99,,,-99.99,,2013-09-02 04:44:00,
2013-09-01 22:54:00,62.0,55.0,-100.00,NNE,32,2.0,5.0,78,-99.99,,,-99.99,,2013-09-02 04:54:00,
2013-09-01 23:12:00,61.0,55.0,-100.00,WNW,299,1.0,4.0,81,-99.99,,,-99.99,,2013-09-02 05:12:00,
2013-09-01 23:23:00,61.0,56.0,-100.00,WNW,297,6.0,6.0,83,-99.99,,,-99.99,,2013-09-02 05:23:00,
2013-09-01 23:43:00,61.0,56.0,-100.00,SW,224,2.0,3.0,83,-99.99,,,-99.99,,2013-09-02 05:43:00,
2013-09-01 23:52:00,61.0,56.0,-100.00,North,355,1.0,2.0,82,-99.99,,,-99.99,,2013-09-02 05:52:00,